Flag for Spain Weather past 2 weeks in Barcelona, Barcelona, Spain

Now
45 °F

Sunny.


Feels Like: 39 °F
Forecast: 41 / 56 °F
Wind: 12 mph from Northwest

Location: Barcelona Airport

Current Time: Mar 5, 2015 at 8:00:35 AM

Latest Report: Mar 5, 2015 at 7:30 AM


Visibility: 10 mi

Pressure: 30.33 "Hg

Humidity: 42%

Dew point: 23 °F

Location of BarcelonaLocation

Historic Weather in Barcelona — Graph

°F

Barcelona temperature yesterday

Maximum temperature yesterday: 57 °F (at 11:00 AM)
Minimum temperature yesterday: 45 °F (at 8:30 PM)
Average temperature yesterday: 50 °F

Past Weeks' High & Low Weather Summary

 TemperatureHumidityPressure
High72 °F (Mar 2, 3:30 PM)94% (Feb 24, 4:30 AM)30.54 "Hg (Feb 24, 4:30 AM)
Low39 °F (Feb 20, 6:30 AM)13% (Feb 22, 4:00 PM)29.59 "Hg (Feb 21, 2:30 PM)
Average52 °F67%30.08 "Hg
* Reported Feb 18 7:00 AM — Mar 5 7:00 AM, Barcelona, Weather by CustomWeather, © 2015

Note: Actual official high and low records may vary slightly from our data, if they occured in-between our weather recording intervals... More about our weather records

Advertising

Barcelona weather history for previous 24 hours

 ConditionsComfort  
Time TempWeatherWind HumidityBarometerVisibility
7:00 AM
Thu, Mar 5
46 °FPassing clouds.5 mph32%30.33 "HgN/A
6:30 AM46 °FPassing clouds.9 mph34%30.33 "HgN/A
6:00 AM45 °FPassing clouds.10 mph46%30.33 "HgN/A
5:30 AM45 °FPassing clouds.8 mph46%30.33 "HgN/A
4:30 AM41 °FPassing clouds.8 mph61%30.33 "HgN/A
4:00 AM41 °FPassing clouds.5 mph61%30.33 "HgN/A
3:00 AM43 °FPassing clouds.13 mph61%30.36 "HgN/A
2:30 AM43 °FPassing clouds.10 mph57%30.36 "HgN/A
2:00 AM43 °FPassing clouds.8 mph61%30.36 "HgN/A
1:30 AM43 °FPassing clouds.12 mph61%30.39 "HgN/A
1:00 AM45 °FPassing clouds.7 mph57%30.39 "HgN/A
12:30 AM45 °FPassing clouds.12 mph57%30.36 "HgN/A
12:00 AM46 °FPassing clouds.10 mph50%30.36 "HgN/A
11:30 PM
Wed, Mar 4
46 °FPassing clouds.2 mph50%30.39 "HgN/A
10:00 PM45 °FPassing clouds.8 mph71%30.36 "HgN/A
9:30 PM45 °FPassing clouds.7 mph87%30.36 "HgN/A
9:00 PM45 °FPassing clouds.5 mph93%30.36 "HgN/A
8:30 PM45 °FPassing clouds.9 mph93%30.33 "HgN/A
8:00 PM46 °FPassing clouds.6 mph87%30.33 "HgN/A
7:30 PM46 °FPassing clouds.8 mph87%30.33 "HgN/A
7:00 PM48 °FPassing clouds.3 mph82%30.30 "HgN/A
6:30 PM48 °FPassing clouds.1 mph82%30.30 "HgN/A
6:00 PM48 °FPassing clouds.10 mph82%30.27 "HgN/A
5:30 PM48 °FScattered clouds.9 mph87%30.27 "HgN/A
5:00 PM46 °FScattered clouds.13 mph93%30.27 "HgN/A
4:30 PM48 °FScattered clouds.7 mph94%30.24 "HgN/A
4:00 PM48 °FThunderstorms. Broken clouds.7 mph87%30.24 "Hg2 mi
3:30 PM48 °FBroken clouds.14 mph94%30.24 "HgN/A
3:00 PM50 °FLight rain. Broken clouds.13 mph94%30.24 "Hg6 mi
2:30 PM48 °FHail. Broken clouds.12 mph94%30.24 "Hg2 mi
2:00 PM54 °FRain. Broken clouds.12 mph82%30.24 "Hg6 mi
1:30 PM54 °FHeavy rain. Broken clouds.12 mph88%30.24 "Hg2 mi
1:00 PM55 °FRain. Broken clouds.10 mph82%30.24 "HgN/A
12:30 PM57 °FBroken clouds.9 mph77%30.24 "HgN/A
12:00 PM57 °FBroken clouds.8 mph77%30.24 "HgN/A
11:30 AM57 °FBroken clouds.7 mph77%30.27 "HgN/A
11:00 AM57 °FBroken clouds.3 mph77%30.27 "HgN/A
10:30 AM55 °FBroken clouds.2 mph72%30.27 "HgN/A
10:00 AM54 °FBroken clouds.7 mph77%30.27 "HgN/A
9:30 AM54 °FPartly sunny.6 mph77%30.27 "HgN/A
9:00 AM52 °FScattered clouds.5 mph77%30.24 "HgN/A
8:30 AM52 °FScattered clouds.7 mph77%30.24 "HgN/A
8:00 AM50 °FScattered clouds.7 mph82%30.24 "HgN/A
Weather by CustomWeather, © 2015

See weather overviewHow to use our weather pages